Location: Unspecified
(0.0000°N, 0.0000°E)
Time: 12:43:10
(UTC+02:00)

ATLAS 2AS CENTAUR R/B - Visible Passes

Search period start: 29 July 2014 00:00
Search period end: 08 August 2014 00:00
Orbit: 918 x 1294 km, 63.7° (Epoch: 15 July)

Date Brightness Start Highest point End Pass type
(mag) Time Alt. Az. Time Alt. Az. Time Alt. Az.
29 Jul 3.7 06:22:39 10° N 06:30:09 52° ENE 06:37:05 10° SE visible
30 Jul 4.6 05:38:54 10° N 05:45:23 29° ENE 05:51:27 10° ESE visible
30 Jul 3.4 07:29:22 10° NW 07:36:05 34° WSW 07:42:22 10° S visible
31 Jul 5.4 04:56:22 10° NNE 05:00:31 15° ENE 05:04:31 10° E visible
31 Jul 2.8 06:43:52 10° NNW 06:51:28 63° WSW 06:58:28 10° SSE visible
01 Aug 3.0 05:59:04 10° NNW 06:06:48 74° ENE 06:13:55 10° SSE visible
02 Aug 3.9 05:14:53 10° N 05:22:04 41° ENE 05:28:45 10° SE visible
02 Aug 3.7 07:06:56 10° WNW 07:12:41 24° WSW 07:18:07 10° SSW visible
03 Aug 4.8 04:31:30 10° NNE 04:37:16 23° ENE 04:42:43 10° ESE visible
03 Aug 3.1 06:20:53 10° NW 06:28:03 44° WSW 06:34:43 10° S visible
04 Aug 4.5 05:49:03 18° SSE 05:49:03 18° SSE 05:50:32 10° SSE visible
